Powrót do katalogu

STARLINK-31001

AktywnyŁącznośćVLEO
NORAD 58527·PAYLOAD·🇺🇸 United States

Wystrzelony Dec 7, 2023 z Cape Canaveral Space Force Station

Loading…

Następne Przeloty (najbliższe 24 godziny)

TLE

ŚwieżeSource: CelesTrak SupGP

Epoka: Sep 15, 2026, 03:26 UTC

1 58527C 23191V   26258.14354167  .00037731  00000+0  13669-2 0  2582
2 58527  43.0017 113.4858 0001401 269.2880 136.0693 15.27552315    10

Śledź STARLINK-31001 w czasie rzeczywistym z AllMySat

Download on the App Store